Flag for Albania Weather past 2 weeks in Durrës, Albania

Now
70 °F

Clear.


Feels Like: 70 °F
Forecast: 75 / 84 °F
Wind: 3 mph from Southeast

Location: Tirana Airport

Current Time: Jul 8, 2015 at 5:00:53 AM

Latest Report: Jul 8, 2015 at 4:20 AM


Visibility: 10 mi

Pressure: 29.92 "Hg

Humidity: 73%

Dew point: 61 °F

Location of DurrësLocation

Historic Weather in Durrës — Graph

°F

Durrës temperature yesterday

Maximum temperature yesterday: 95 °F (at 1:20 PM)
Minimum temperature yesterday: 66 °F (at 2:20 AM)
Average temperature yesterday: 79 °F

Past Weeks' High & Low Weather Summary

 TemperatureHumidityPressure
High95 °F (Jul 7, 1:20 PM)94% (Jun 25, 2:50 AM)30.18 "Hg (Jun 25, 2:50 AM)
Low55 °F (Jun 26, 4:20 AM)26% (Jul 4, 11:50 AM)29.86 "Hg (Jun 26, 5:50 PM)
Average73 °F60%30.03 "Hg
* Reported Jun 23 3:20 AM — Jul 8 3:50 AM, Durrës, Weather by CustomWeather, © 2015

Note: Actual official high and low records may vary slightly from our data, if they occured in-between our weather recording intervals... More about our weather records

Advertising

Durrës weather history for previous 24 hours

 ConditionsComfort  
Time TempWeatherWind HumidityBarometerVisibility
3:50 AM
Wed, Jul 8
68 °FClear.3 mph78%29.92 "Hg10 mi
3:20 AM68 °FClear.2 mph83%29.92 "Hg10 mi
2:50 AM70 °FClear.2 mph78%29.92 "Hg10 mi
2:20 AM70 °FClear.3 mph78%29.92 "Hg10 mi
1:20 AM72 °FClear.5 mph73%29.92 "Hg10 mi
12:50 AM72 °FClear.6 mph73%29.92 "Hg10 mi
12:20 AM72 °FClear.5 mph73%29.92 "Hg10 mi
11:20 PM
Tue, Jul 7
73 °FClear.3 mph74%29.95 "Hg10 mi
10:50 PM75 °FClear.3 mph69%29.95 "Hg10 mi
10:20 PM73 °FClear.3 mph74%29.95 "Hg10 mi
9:50 PM75 °FClear.2 mph69%29.95 "Hg10 mi
9:20 PM75 °FClear.2 mph69%29.92 "Hg10 mi
8:50 PM77 °FSunny.No wind61%29.92 "Hg10 mi
8:20 PM79 °FSunny.3 mph58%29.92 "Hg10 mi
7:50 PM79 °FSunny.3 mph58%29.92 "Hg10 mi
7:20 PM82 °FSunny.6 mph51%29.92 "Hg10 mi
6:50 PM84 °FSunny.7 mph48%29.95 "Hg10 mi
6:20 PM88 °FSunny.8 mph40%29.95 "Hg10 mi
5:50 PM90 °FSunny.8 mph43%29.95 "Hg10 mi
5:20 PM86 °FSunny.10 mph46%29.95 "Hg10 mi
4:50 PM90 °FSunny.10 mph46%29.95 "Hg10 mi
4:20 PM90 °FSunny.12 mph49%29.95 "Hg10 mi
3:50 PM93 °FSunny.12 mph44%29.95 "Hg10 mi
3:20 PM91 °FSunny.13 mph44%29.95 "Hg10 mi
2:50 PM93 °FSunny.13 mph41%29.95 "Hg10 mi
2:20 PM95 °FPassing clouds.10 mph41%29.98 "HgN/A
1:50 PM93 °FPassing clouds.9 mph34%29.98 "HgN/A
1:20 PM95 °FPassing clouds.7 mph36%29.98 "HgN/A
12:50 PM93 °FPassing clouds.6 mph39%29.98 "HgN/A
12:20 PM91 °FPassing clouds.6 mph38%30.01 "HgN/A
11:50 AM90 °FSunny.3 mph41%30.01 "Hg10 mi
11:20 AM90 °FSunny.2 mph38%30.01 "Hg10 mi
10:50 AM91 °FSunny.2 mph41%30.01 "Hg10 mi
10:20 AM88 °FPassing clouds.3 mph43%30.01 "HgN/A
9:50 AM86 °FSunny.3 mph46%30.01 "Hg10 mi
9:20 AM81 °FSunny.2 mph51%30.04 "Hg10 mi
8:50 AM81 °FSunny.No wind51%30.04 "Hg10 mi
8:20 AM77 °FSunny.2 mph57%30.04 "Hg10 mi
7:50 AM75 °FSunny.5 mph61%30.04 "Hg10 mi
7:20 AM73 °FSunny.No wind69%30.04 "Hg10 mi
6:50 AM70 °FSunny.3 mph78%30.04 "Hg10 mi
6:20 AM68 °FSunny.2 mph83%30.04 "Hg10 mi
5:50 AM66 °FClear.3 mph83%30.04 "Hg10 mi
5:20 AM66 °FClear.2 mph88%30.04 "Hg10 mi
Weather by CustomWeather, © 2015

See weather overviewHow to use our weather pages